Home   Weather   Rockhampton   Past weeks

Flag for Australia Past Weather in Rockhampton, Queensland, Australia — Yesterday and Last 2 Weeks

Now
82 °F

Passing clouds.


Feels Like: 86 °F
Forecast: 73 / 98 °F
Wind: 8 mph from North

Location: Rockhampton Airport

Current Time: Dec 3, 2016 at 8:30:33 am

Latest Report: Dec 3, 2016 at 8:00 am


Visibility: N/A

Pressure: 29.98 "Hg

Humidity: 66%

Dew Point: 70 °F

Location of RockhamptonLocation

Past Weather in Rockhampton — Graph

°F

Rockhampton Temperature Yesterday

Maximum temperature yesterday: 100 °F (at 2:30 pm)
Minimum temperature yesterday: 70 °F (at 4:30 am)
Average temperature yesterday: 84 °F

High & Low Weather Summary for the Past Weeks

 TemperatureHumidityPressure
High100 °F (Dec 2, 2:30 pm)100% (Nov 24, 4:30 am)30.07 "Hg (Nov 24, 4:30 am)
Low64 °F (Nov 19, 4:30 am)12% (Nov 23, 3:00 pm)29.65 "Hg (Nov 24, 3:30 pm)
Average79 °F63%29.89 "Hg
* Reported Nov 18 7:00 am — Dec 3 7:00 am, Rockhampton, Weather by CustomWeather, © 2016

Note: Actual official high and low records may vary slightly from our data, if they occured in-between our weather recording intervals... More about our weather records

Advertising

Rockhampton Weather History for the Previous 24 Hours

Scroll right to see more
 ConditionsComfort  
Time TempWeatherWind HumidityBarometerVisibility
7:00 am
Sat, Dec 3
79 °FSunny.5 mph79%29.95 "HgN/A
6:30 am77 °FSunny.3 mph83%29.95 "HgN/A
6:00 am75 °FSunny.3 mph83%29.95 "HgN/A
5:30 am72 °FSunny.3 mph94%29.92 "HgN/A
5:00 am72 °FClear.5 mph88%29.92 "HgN/A
4:30 am73 °FClear.No wind89%29.89 "HgN/A
4:00 am73 °FClear.No wind89%29.89 "HgN/A
3:00 am75 °FClear.3 mph89%29.86 "HgN/A
2:30 am73 °FClear.3 mph94%29.86 "HgN/A
2:00 am73 °FClear.No wind94%29.86 "HgN/A
1:30 am75 °FClear.No wind83%29.86 "HgN/A
1:00 am75 °FClear.2 mph83%29.86 "HgN/A
12:00 am77 °FClear.6 mph79%29.89 "HgN/A
11:00 pm
Fri, Dec 2
77 °FClear.6 mph74%29.89 "HgN/A
10:30 pm77 °FClear.7 mph74%29.89 "HgN/A
10:00 pm79 °FClear.8 mph65%29.89 "HgN/A
9:30 pm81 °FClear.8 mph58%29.89 "HgN/A
9:00 pm81 °FClear.8 mph54%29.89 "HgN/A
8:00 pm84 °FClear.10 mph48%29.86 "HgN/A
7:00 pm90 °FClear.8 mph38%29.83 "HgN/A
6:30 pm91 °FSunny.12 mph36%29.83 "HgN/A
6:00 pm91 °FSunny.15 mph46%29.80 "HgN/A
5:30 pm93 °FSunny.14 mph47%29.80 "HgN/A
5:00 pm95 °FSunny.14 mph44%29.77 "Hg10 mi
4:30 pm95 °FSunny.16 mph41%29.77 "Hg10 mi
4:00 pm97 °FSunny.16 mph39%29.77 "Hg10 mi
3:30 pm99 °FSunny.13 mph35%29.77 "Hg10 mi
3:00 pm100 °FPassing clouds.7 mph24%29.77 "HgN/A
2:30 pm100 °FPassing clouds.8 mph24%29.80 "HgN/A
2:00 pm99 °FSunny.10 mph27%29.80 "Hg10 mi
1:30 pm99 °FSunny.10 mph29%29.80 "Hg10 mi
1:00 pm99 °FPassing clouds.8 mph29%29.83 "HgN/A
12:00 pm93 °FPassing clouds.8 mph39%29.86 "HgN/A
11:30 am93 °FPassing clouds.8 mph41%29.86 "HgN/A
11:00 am90 °FSunny.9 mph46%29.89 "Hg10 mi
10:00 am90 °FSunny.9 mph46%29.92 "Hg10 mi
9:30 am86 °FPassing clouds.12 mph49%29.92 "HgN/A
9:00 am84 °FPassing clouds.8 mph58%29.92 "HgN/A
8:30 am84 °FPassing clouds.8 mph58%29.92 "HgN/A
8:00 am81 °FPassing clouds.9 mph66%29.92 "HgN/A
Weather by CustomWeather, © 2016

See weather overviewHow to use our weather pages